weather.gov     
National Weather Service

Other Surface Observations
NWS Homepage
This page is being discontinued on March 12, 2014.
The same data is available at this site. Please update your bookmarks.
Thank you, and we apologize for the inconvenience.
Please send an email to SR-SRH.Webmaster@noaa.gov with any concerns.


Current Version
Previous Version:    01  02  03  04  05  06  07  08  09  10  11  12  13  14  15  16  17  18  19  20  21  22  23  24  25  26  27  28  29  30  
   31  32  33  34  35  36  37  38  39  40  41  42  43  44  45  46  47  48  49  50  51  52  53  54  55  56  57  58  59  60  
[Printable]
142
SXUS52 KTAE 012118
OSOTAE
OSOTAE
North Florida/South Alabama/Southwest Georgia Weather Roundup
National Weather Service Tallahassee Florida
500 PM EDT MON SEP 01 2014

Note: "fair" indicates few or no clouds below 12,000 feet with no
significant weather and/or obstructions to visibility.

!FLZ017-115-028-034-025-012200
...North Florida...

CITY           SKY/WX    TMP DP  RH WIND       PRES   REMARKS
TALLAHASSEE    PTSUNNY   85  79  82 CALM      30.04F HX  98
APALACHICOLA   MOSUNNY   87  76  69 S9        30.05F HX  97
PERRY          MOSUNNY   90  73  58 SW12      30.05S HX  98
CROSS CITY       N/A     90  73  57 SW8       30.04F HX  98
HOMERVILLE     DRIZZLE   86  77  74 NE5       30.03F HX  97
JACKSONVILLE   PTSUNNY   90  74  59 S8        30.03F HX  99
$$

!FLZ112-006-005-002-011-012200
...Florida Panhandle...

CITY           SKY/WX    TMP DP  RH WIND       PRES   REMARKS
MARIANNA       SUNNY     95  69  42 S8        30.02F HX 100
BONIFAY        NOT AVBL
PANAMA CITY NW FAIR      92  69  47 S9        30.04F HX  97
TYNDALL AFB    PTSUNNY   81  73  78 E6        30.07F THUNDER
TYND DRONE APT MOCLDY    80  73  78 E15G22    30.06
DE FUNIAK SPR  FAIR      90  71  53 S8        30.06F HX  96
EGLIN AFB      MOSUNNY   89  75  62 S9        30.06F HX  99
DESTIN         SUNNY     90  75  61 VRB6      30.05F HX 100
HURLBURT       MOSUNNY   89  71  55 S10       30.04F HX  96
CRESTVIEW      SUNNY     94  67  41 S9        30.06F HX  97
PENSACOLA      MOSUNNY   88  74  63 SE10      30.05F HX  96
$$

!ALZ063-066-012200
...South Alabama...

CITY           SKY/WX    TMP DP  RH WIND       PRES   REMARKS
DOTHAN         MOSUNNY   97  64  33 S8        30.07F HX  99
OZARK CAIRNS   MOSUNNY   96  66  36 VRB7      30.03F HX 100
FT RUCKER HELI SUNNY     94  67  41 VRB6      30.02F HX  97
RUCKER HELI 3  FAIR      94  65  38 VRB5G15   30.06F HX  96
RUCKER HELI 2  FAIR      94  65  38 VRB5      30.03F HX  96
FLORALA APT    MOSUNNY   94  68  42 S9        30.05F HX  98
ANDALUSIA      MOSUNNY   99  68  36 W9        30.03F HX 104
TROY           MOSUNNY   94  69  44 MISG      30.05F HX  99
EUFALA         FAIR      98  69  38 CALM      30.01F HX 104
MOBILE         MOSUNNY   89  75  63 S16       30.04F HX  99
$$

!GAZ120>161-012200
...Southwest and South Central Georgia...

CITY           SKY/WX    TMP DP  RH WIND       PRES   REMARKS
THOMASVILLE    FAIR      95  70  43 S7        30.04F HX 101
BAINBRIDGE     SUNNY     99  72  41 W9        30.02F HX 107
MOODY AFB      MOSUNNY   94  71  46 S5        30.04F HX 100
VALDOSTA       SUNNY     94  69  44 S6        30.03F HX  99
MOULTRIE       SUNNY     93  68  43 S3        30.05F HX  97
BLAKELY        SUNNY     99  63  30 S5          N/A  HX 100
ALBANY         MOSUNNY   95  68  41 W6        30.04F HX  99
TIFTON         PTSUNNY   94  65  38 SW6       30.03F HX  97
FITZGERALD     FAIR      96  68  39 S3        30.05F THUNDER HX 101
CORDELE        FAIR      98  67  37 W9        30.03F HX 102
AMERICUS       FAIR      95  64  36 SW5       30.04F HX  97
$$

!GMZ750-755-770-775-012200
...Coastal and Buoy Obs...

STATION/POSITION TIME  TEMP    WIND        PRES    VSBY  WAVE
                       AIR SEA DIR/SP/G                  HT/PER
                 (UTC) (F)     (DEG/KT/KT) (MB)    (MI)  (FT/S)
KEATON BEACH     2100   85     220/ 10/ 11 1017.8F
CEDAR KEY        2100   86     260/  6/  8 1017.9F
C TOWER          2100   84     160/  5/  5 1017.7F
APALACHICOLA BUO 2100   85 88  130/  4/  6 1017.5F         2/ 6
PANAMA CITY BUOY 2019   85 87  140/ 10/ 12 1017.3F         3/ 6
MOBILE BUOY      2000   84     150/ 12       N/A
ORANGE BCH AL BU 2100   86 86  140/ 12/ 14 1017.4F         3/ 8
$$




U.S. Dept. of Commerce
NOAA National Weather Service
1325 East West Highway
Silver Spring, MD 20910
E-mail: w-nws.webmaster@noaa.gov
Page last modified: May 16, 2007
NATIONAL WEATHER SERVICE: for Safety, for Work, for Fun - FOR LIFE